Theta_e
292 289 287 290 290 289 288 286 286 289 292 290 289 290 293 292 290 290 290 291 291 292 294 292 295 296 297 298 300 300 305 304 303 301 301 300 297 296 296 297 297 297 295 294
290 287 293 293 292 290 288 286 286 289 291 290 289 289 291 291 291 293 293 293 292 293 290 292 294 295 296 298 299 300 305 303 303 304 297 294 295 292 292 293 292 292 290 289
288 292 294 293 290 289 288 286 285 287 289 288 286 286 288 291 293 292 294 296 295 294 292 291 293 294 296 297 299 300 304 304 302 296 293 291 291 291 290 290 289 289 288 287
290 294 293 290 289 291 286 290 290 288 286 282 286 282 286 289 290 291 294 294 295 294 292 292 293 294 296 298 299 301 303 302 295 295 294 294 294 292 289 288 287 286 285 285
289 291 291 289 290 292 289 291 289 287 284 282 281 281 285 287 288 291 294 295 295 293 292 291 293 295 297 298 300 303 301 295 295 294 294 294 293 288 287 287 286 283 283 283
289 292 293 293 292 293 292 289 287 285 283 278 285 284 284 286 291 291 295 295 293 291 290 291 293 295 296 298 303 303 295 294 294 293 293 291 287 286 285 285 284 282 282 282
288 289 291 292 289 290 290 288 280 278 276 279 282 281 288 290 291 293 294 295 291 289 288 289 291 294 295 297 299 298 295 292 293 293 291 289 288 287 286 284 282 281 281 281
284 281 289 291 293 289 288 287 281 273 275 278 282 280 286 290 292 292 292 292 289 287 288 289 292 294 294 296 298 297 293 292 292 291 289 289 288 287 286 284 283 282 282 281
284 284 288 289 290 294 286 284 289 283 271 274 281 284 289 290 290 291 291 288 286 287 287 289 291 293 294 294 295 294 293 292 291 290 289 287 287 286 284 282 281 281 281 281
289 282 287 288 291 290 288 290 283 281 273 270 279 280 284 288 289 291 291 289 288 287 286 287 289 291 291 292 291 291 292 290 290 289 288 287 286 285 282 281 281 280 281 281
290 287 283 286 286 286 286 285 284 285 281 276 273 283 288 290 292 292 291 292 289 287 286 286 288 288 289 288 287 287 289 290 288 288 287 286 285 282 282 281 281 281 281 280
291 288 279 283 286 287 287 286 287 282 279 281 280 285 289 290 290 291 292 291 287 287 286 285 286 286 285 285 285 286 287 288 288 287 286 285 283 281 280 280 280 280 280 279
293 288 281 283 285 286 285 287 291 288 283 284 279 284 287 288 290 290 289 289 288 286 284 284 284 285 285 285 285 285 286 287 287 286 285 284 281 281 280 279 279 280 279 279
298 289 284 284 285 287 283 285 287 289 284 284 285 289 291 288 289 290 290 289 287 286 285 284 284 284 285 285 285 284 284 287 285 285 284 282 281 281 280 280 279 279 279 279
295 286 288 289 289 286 285 286 287 287 288 286 289 289 293 294 289 291 293 290 287 286 284 284 284 284 285 284 284 284 284 284 284 284 283 282 282 282 281 280 279 279 279 279
295 285 287 286 290 288 286 286 286 288 290 290 291 290 296 294 293 291 293 292 288 287 287 286 285 285 284 285 284 284 284 284 284 284 283 283 282 281 280 280 279 279 278 278
291 288 286 285 287 287 283 287 289 287 290 290 286 292 296 294 291 294 295 291 290 289 289 288 286 286 285 285 286 284 284 284 283 283 283 282 282 281 280 279 279 278 277 277
287 288 288 285 285 279 288 290 293 291 292 291 291 293 294 294 294 295 292 292 293 291 290 290 289 288 287 286 285 285 284 283 283 283 282 282 282 281 280 279 278 278 278 277
291 287 285 283 284 285 288 285 286 288 289 295 293 294 296 297 290 296 292 293 294 293 293 293 291 289 286 285 285 283 282 282 282 282 282 282 282 281 279 279 278 278 277 277
286 290 285 283 281 280 285 282 284 290 285 283 293 294 294 287 285 293 287 287 289 288 289 289 287 285 284 283 283 282 281 281 281 282 283 282 282 282 280 280 279 279 278 278
281 284 282 283 282 283 287 281 284 282 284 277 282 283 286 286 289 285 285 286 285 286 286 285 283 283 283 282 282 281 281 281 283 283 283 282 282 282 282 281 279 278 278 277
281 281 281 284 281 278 286 283 283 285 281 281 282 283 284 284 285 284 285 285 284 283 283 282 280 280 280 281 281 280 280 281 281 281 280 281 282 282 282 281 280 279 278 277
281 281 281 285 284 283 282 283 283 284 283 282 282 283 283 282 282 283 284 283 282 281 281 279 279 279 278 281 283 281 282 282 282 282 282 282 283 283 283 282 280 279 279 278
283 284 283 285 285 282 282 283 282 281 281 280 280 280 282 281 280 280 279 282 281 278 279 279 281 281 280 283 284 284 283 283 285 284 283 283 282 282 282 283 282 280 277 277
283 283 281 280 282 282 283 283 284 283 281 280 281 280 280 280 279 280 278 278 279 277 276 277 281 279 276 277 276 275 278 281 281 281 279 280 281 281 279 278 279 278 278 279
281 281 281 281 285 286 285 284 285 282 281 281 281 280 280 280 280 279 278 278 276 276 275 275 275 275 272 273 271 270 270 275 275 273 274 274 274 273 273 272 269 276 275 279
Wind_Speed
2 4 8 14 9 4 5 4 6 5 4 4 9 11 15 8 7 10 12 13 14 18 10 8 8 8 7 7 7 7 8 8 8 6 5 4 4 4 4 4 7 8 7 8
4 8 13 3 5 4 1 3 6 6 4 7 9 13 11 6 10 15 17 17 17 15 8 10 10 9 9 9 9 9 10 11 8 6 3 4 4 4 4 4 6 7 7 7
9 6 5 8 5 5 6 7 5 8 4 4 4 8 9 9 12 7 15 17 15 20 18 14 14 14 10 11 11 11 12 12 9 9 8 7 7 5 4 4 5 5 6 7
7 4 6 5 6 9 8 9 7 4 1 5 2 12 6 6 13 9 17 15 21 16 9 13 17 15 14 12 10 11 12 12 10 11 9 15 9 8 3 4 5 5 6 6
9 8 7 6 8 9 7 5 6 2 4 2 3 5 6 2 8 14 17 18 16 12 16 19 21 18 14 12 13 12 11 11 12 11 11 9 9 6 7 7 10 6 5 6
5 1 7 8 3 8 7 5 6 4 2 6 13 12 6 8 14 6 12 13 11 11 10 9 9 11 12 11 13 13 13 11 13 11 11 10 14 14 11 10 9 6 4 4
3 6 4 4 6 3 3 6 3 5 1 11 3 6 15 7 7 11 12 13 4 6 9 9 13 14 14 16 14 13 14 12 13 13 12 12 13 16 18 17 12 11 8 5
11 8 13 8 13 9 9 10 9 9 5 7 1 11 8 10 9 8 10 7 5 7 8 12 14 14 14 16 16 16 15 14 14 13 12 12 14 10 10 12 12 9 8 8
8 8 2 2 4 12 7 9 4 3 2 3 7 8 9 9 10 10 12 3 5 8 9 10 11 13 13 15 16 16 15 13 14 14 12 12 12 12 12 10 8 7 7 7
4 3 1 1 4 4 6 8 4 1 3 6 7 8 10 6 10 11 13 6 8 7 7 7 9 10 10 11 10 9 12 14 15 13 13 12 13 11 9 9 10 10 9 10
5 4 2 3 7 12 4 5 2 5 6 6 4 11 8 10 11 9 8 9 6 8 8 8 8 7 8 9 9 10 10 13 13 13 12 13 11 10 10 10 9 10 10 11
9 4 5 9 2 2 1 6 7 6 5 5 3 22 5 3 4 6 7 5 2 6 8 8 8 9 9 10 10 11 11 13 13 12 12 13 12 11 11 10 10 10 11 10
8 3 1 4 2 3 5 6 15 3 3 17 7 15 3 2 4 4 5 3 5 6 8 8 9 12 12 12 12 12 11 12 12 12 14 14 13 14 13 12 12 11 11 11
11 6 8 10 3 6 8 10 12 17 8 9 21 27 14 5 6 4 6 4 6 7 10 11 10 12 13 13 14 13 12 12 13 14 15 15 15 16 15 14 14 13 12 12
11 7 9 14 7 1 3 8 18 19 31 13 33 19 31 15 10 12 6 6 7 9 9 11 13 13 13 13 14 14 14 14 15 15 14 15 14 13 12 12 13 12 12 11
11 6 7 13 18 13 13 9 17 25 27 24 31 26 12 6 5 5 11 8 8 9 10 12 12 13 16 17 16 15 15 15 15 16 15 13 13 12 13 12 12 11 10 9
10 6 6 17 7 8 9 30 21 11 19 21 24 37 28 18 10 12 15 4 8 12 13 11 15 17 16 19 17 19 17 14 15 15 14 14 15 15 14 12 12 12 11 9
4 14 9 13 5 11 14 4 20 24 24 18 21 27 25 16 12 14 4 7 12 8 10 13 13 14 16 15 15 14 15 16 17 15 14 14 15 14 13 13 13 12 10 11
10 4 5 8 15 7 12 7 8 13 21 26 25 26 27 22 6 21 10 10 12 11 12 11 10 9 9 14 14 13 13 14 15 15 16 15 15 15 14 14 14 11 10 8
8 13 7 4 7 11 10 3 3 7 13 6 18 24 21 6 4 14 5 6 8 7 8 7 7 7 10 9 11 14 14 14 16 16 14 14 15 16 15 14 12 9 9 8
6 7 17 14 9 4 6 5 2 8 10 5 5 4 7 6 7 2 7 7 5 5 7 2 4 7 8 10 12 12 12 14 12 11 12 12 12 13 13 11 9 9 7 6
11 11 7 7 8 8 9 6 8 5 2 4 4 5 6 6 6 5 6 5 6 5 5 4 5 5 5 7 10 9 10 6 7 9 10 10 10 8 8 11 8 8 8 8
4 5 6 9 7 1 4 2 4 2 3 2 2 2 1 2 3 2 2 4 5 5 4 4 5 6 4 5 8 10 6 10 10 10 10 11 11 10 11 12 11 9 11 10
3 2 2 1 4 5 6 5 1 3 3 1 1 1 2 3 0 2 3 2 3 3 3 2 7 6 4 5 6 8 9 9 11 11 10 9 10 10 10 8 8 9 9 9
4 7 7 6 4 3 6 6 6 6 5 5 3 2 2 1 1 1 1 2 2 2 3 3 4 5 4 5 6 4 5 8 8 7 7 8 7 9 7 6 7 8 7 10
6 8 6 7 5 4 3 3 6 8 7 6 6 3 3 1 3 4 3 2 2 3 2 4 5 7 4 6 6 5 4 5 7 6 5 5 5 4 5 5 3 3 6 11
Wind_Direction
20 110 202 212 200 163 151 188 232 240 238 178 228 240 255 226 218 232 236 232 230 231 224 191 186 182 183 186 172 173 157 151 142 138 133 120 109 92 74 70 90 89 98 99
52 229 224 142 174 196 203 229 252 285 239 189 262 258 246 218 228 218 227 232 228 232 199 188 184 185 187 183 181 170 172 162 162 160 113 114 125 77 78 76 79 82 89 91
175 212 151 156 158 168 227 212 231 230 325 239 300 264 239 246 238 234 239 238 231 223 211 190 188 193 185 189 182 175 175 170 160 130 114 98 94 95 91 82 83 68 84 89
236 241 146 169 193 161 243 207 207 238 64 251 50 286 243 236 250 228 244 229 237 224 199 190 189 190 191 190 175 176 176 167 149 149 147 159 152 152 133 116 116 97 82 93
229 178 175 186 194 171 224 140 174 192 198 351 208 273 250 226 263 255 251 241 238 216 195 194 194 192 183 173 176 174 168 162 158 158 162 160 135 106 119 123 118 104 91 95
229 174 173 196 132 163 138 84 54 55 88 261 209 208 207 198 221 246 251 253 232 208 200 190 182 168 171 170 177 171 163 166 162 158 161 153 142 141 139 143 132 136 128 121
135 219 193 151 99 48 137 100 315 328 353 247 7 225 253 285 237 219 246 259 262 157 162 166 171 176 170 174 173 167 167 168 164 162 161 155 155 160 158 155 150 152 151 148
185 265 168 190 195 167 196 163 166 211 210 278 232 241 253 231 263 247 256 279 136 165 179 187 186 181 176 175 174 173 172 167 164 162 161 160 159 164 168 158 153 156 156 152
169 259 219 195 144 159 197 210 174 54 92 354 233 281 283 260 279 267 253 159 182 212 194 188 179 182 175 176 176 175 172 170 166 166 161 163 163 163 167 153 152 149 142 145
223 278 191 193 95 26 159 161 90 357 209 257 269 270 233 257 249 256 263 237 226 212 190 176 178 175 175 177 170 166 174 172 165 164 168 168 169 165 150 148 149 151 149 149
160 145 301 126 214 166 139 186 140 136 160 189 303 261 213 219 216 229 260 250 228 194 194 182 176 172 174 167 169 162 166 170 168 168 166 163 164 152 148 154 152 156 152 154
200 162 196 203 260 268 53 204 163 158 210 239 166 266 181 207 248 195 254 322 228 182 181 173 173 166 170 176 173 176 172 173 171 165 161 164 156 151 155 159 161 162 162 161
159 177 280 320 16 345 214 207 204 160 76 223 158 265 32 337 273 259 253 201 182 168 173 170 172 185 184 186 185 184 180 178 167 163 164 165 164 164 166 163 166 167 161 163
111 180 205 224 194 145 193 198 203 203 221 206 231 251 249 207 240 255 241 250 216 197 188 189 188 194 193 190 188 186 182 180 168 171 173 173 176 175 172 169 168 166 168 168
150 225 219 249 285 197 232 215 200 205 226 204 252 243 255 242 222 230 258 222 196 210 203 202 197 198 193 194 191 190 185 176 172 175 179 184 180 175 169 166 166 167 172 173
176 222 197 255 247 226 237 233 223 221 230 230 254 257 234 178 229 207 235 234 216 222 222 217 209 196 199 196 196 190 190 184 174 177 180 175 171 169 171 171 170 166 169 167
184 185 174 253 178 211 237 232 225 222 229 218 237 246 262 267 229 248 258 248 236 227 226 221 209 205 200 199 191 194 187 172 180 180 176 170 169 170 172 166 164 171 173 168
212 203 194 246 131 227 240 164 215 219 233 213 240 255 258 249 248 257 216 229 253 244 226 224 214 209 205 194 192 184 177 177 178 180 175 171 170 170 163 164 172 172 172 178
194 182 246 223 224 256 286 212 154 175 245 228 226 247 262 271 338 280 214 231 248 248 247 237 224 213 177 184 180 170 172 177 177 181 181 175 170 166 168 175 176 173 167 172
198 213 200 215 239 230 263 182 154 105 253 177 193 229 249 93 254 274 346 330 307 299 271 249 188 151 160 168 157 160 172 176 187 187 179 169 169 170 175 177 174 168 174 174
174 198 215 226 245 268 245 160 210 138 235 181 175 167 150 183 213 248 304 309 312 308 315 322 147 157 155 143 150 163 168 188 177 164 166 172 175 171 170 165 162 154 159 148
178 173 187 207 219 245 172 85 199 217 32 146 195 183 183 220 278 304 313 327 351 12 31 53 89 96 107 123 139 153 173 147 126 133 141 147 153 149 149 151 150 158 170 187
202 186 186 195 202 65 216 266 188 131 134 148 130 144 214 249 249 308 302 11 18 26 28 34 94 99 68 114 143 140 132 124 122 127 139 147 152 162 167 171 172 176 189 200
261 126 259 6 248 213 211 214 108 90 89 93 218 192 206 204 222 325 329 357 34 19 37 90 106 96 85 95 107 127 144 146 151 169 171 169 176 179 182 187 188 187 190 201
183 152 177 256 246 291 234 213 172 169 169 162 130 96 20 294 235 184 124 40 51 47 27 69 113 115 104 94 87 79 133 148 157 157 150 161 171 176 175 185 185 194 201 204
188 183 168 221 206 174 195 187 175 171 181 182 151 121 88 156 164 125 101 89 92 83 67 83 88 103 91 91 79 61 63 122 133 129 143 155 147 150 157 150 86 169 168 195